[[{"header":{"parameterUnit":"m.s-1","parameterCategory":1,"la1":30.2991,"la2":30.254,"lo1":-89.0895,"lo2":-89.0444,"dy":0.0017,"dx":0.0017,"nx":28,"ny":28,"refTime":"2024-03-27T03:00:00:Z","depth":0,"parameterNumber":2,"parameterNumberName":"U-component_of_WINDS"},"data":[0,0,0,0,0,0,0,0,0,0,0,0,0,0,0,0,0,0,0,0,0,0,0,0,0,0,0,0,0,0,0,0,0,0,0,0,0,0,0,0,0,0,0,0,0,0,0,0,0,0,0,0,0,0,0,0,0,0,-1.1182,-1.1182,0,-1.1236,-1.1237,-1.1238,-1.1238,-1.1237,-1.1236,-1.1235,-1.1293,-1.1295,-1.1298,0,0,0,0,0,0,0,0,0,0,0,0,0,-1.1077,-1.1079,-1.1181,-1.1182,-1.1183,-1.1236,-1.1237,-1.1238,-1.1238,-1.1237,-1.1236,-1.1235,-1.1292,-1.1295,-1.1298,0,0,0,0,0,0,0,0,0,0,0,0,0,-1.1126,-1.108,-1.1181,-1.1189,-1.119,-1.1236,-1.1237,-1.1238,-1.1238,-1.1237,-1.1236,-1.1235,-1.1292,-1.1295,-1.1298,-1.134,0,0,-1.1308,-1.131,0,0,0,0,0,0,0,0,-1.1124,-1.113,-1.1187,-1.1189,-1.119,-1.1229,-1.1222,-1.1272,-1.1238,-1.122,-1.1235,-1.1234,-1.1273,-1.1278,-1.129,-1.1343,-1.1345,-1.1308,-1.1311,-1.1312,-1.1313,0,0,0,0,0,0,0,-1.112,-1.1128,-1.1203,-1.1188,-1.119,-1.119,-1.1196,-1.1231,-1.1252,-1.1221,-1.1222,-1.1228,-1.1273,-1.1287,-1.1292,-1.1346,-1.1308,-1.1311,-1.1313,-1.1315,-1.1436,-1.1437,0,0,0,0,0,0,-1.1115,-1.1125,-1.1202,-1.1205,-1.1153,-1.1193,-1.1199,-1.1218,-1.1251,-1.1255,-1.1229,-1.1228,-1.1282,-1.1288,-1.1294,-1.1346,-1.1312,-1.1315,-1.1317,-1.1435,-1.1436,-1.1438,0,0,0,0,0,0,-1.1113,-1.1122,-1.1199,-1.1165,-1.1175,-1.1196,-1.1216,-1.1219,-1.1233,-1.1257,-1.1261,-1.1239,-1.1281,-1.1289,-1.1329,-1.1348,-1.1317,-1.132,-1.1433,-1.1435,-1.1437,-1.1449,0,0,0,0,0,0,-1.111,-1.1121,-1.1137,-1.1165,-1.1177,-1.1233,-1.1218,-1.1221,-1.1239,-1.1238,-1.1268,-1.1272,-1.1281,-1.1324,-1.1332,-1.1352,-1.1322,-1.1432,-1.1434,-1.1437,-1.1447,-1.1451,-1.1455,0,0,0,0,0,-1.1106,-1.1139,-1.1138,-1.1147,-1.1197,-1.1234,-1.1241,-1.1251,-1.124,-1.1257,-1.1272,-1.1271,-1.1344,-1.1328,-1.1337,-1.1358,-1.1431,-1.1434,-1.1436,-1.1446,-1.1451,-1.1455,0,0,0,0,0,0,-1.1113,-1.1143,-1.1142,-1.1185,-1.1207,-1.1234,-1.1255,-1.1256,-1.1282,-1.128,-1.1291,-1.1298,-1.1338,-1.1352,-1.1333,-1.14,-1.1386,-1.1391,-1.139,-1.1395,-1.1399,-1.1395,-1.1325,0,0,0,0,0,-1.1119,-1.1146,-1.1171,-1.1206,-1.1217,-1.1234,-1.1251,-1.1256,-1.128,-1.1289,-1.1308,-1.1331,-1.1359,-1.1378,-1.1405,-1.1449,-1.1456,-1.1468,-1.1472,-1.1475,-1.1479,-1.1504,-1.1509,-1.1447,-1.1447,-1.1447,0,0,-1.1133,-1.1152,-1.1169,-1.1208,-1.1226,-1.1254,-1.1242,-1.1273,-1.1294,-1.1294,-1.1333,-1.1347,-1.1373,-1.1415,-1.1435,-1.1428,-1.1498,-1.1478,-1.148,-1.1483,-1.1507,-1.1513,-1.1518,-1.1449,-1.1448,-1.1448,0,0,-1.1172,-1.119,-1.1221,-1.1239,-1.1266,-1.1277,-1.1284,-1.1311,-1.132,-1.1359,-1.136,-1.1385,-1.1433,-1.1453,-1.1469,-1.1514,-1.1514,-1.1523,-1.1543,-1.1567,-1.1572,-1.1576,-1.1593,-1.1599,-1.1527,-1.1527,-1.1527,0,-1.1186,-1.1228,-1.1237,-1.1268,-1.1285,-1.1286,-1.1318,-1.1335,-1.1369,-1.1382,-1.1373,-1.1434,-1.1452,-1.1499,-1.151,-1.1522,-1.1532,-1.152,-1.157,-1.1575,-1.1579,-1.1595,-1.1601,-1.1528,-1.1528,-1.1527,-1.1527,0,-1.1244,-1.1274,-1.1296,-1.1329,-1.1348,-1.1379,-1.1393,-1.1412,-1.1416,-1.1427,-1.1467,-1.1488,-1.152,-1.1531,-1.1535,-1.1578,-1.1573,-1.1567,-1.1553,-1.1586,-1.1601,-1.1607,-1.1529,-1.1529,-1.1528,-1.1528,0,0,-1.1291,-1.1328,-1.1336,-1.1351,-1.138,-1.1403,-1.1434,-1.1464,-1.148,-1.1504,-1.153,-1.1571,-1.1565,-1.1584,-1.159,-1.161,-1.1646,-1.1602,-1.1603,-1.161,-1.1695,-1.17,-1.1707,-1.1645,-1.1646,-1.1647,-1.1693,0,-1.1334,-1.1389,-1.1398,-1.1446,-1.1474,-1.1474,-1.1501,-1.1522,-1.1534,-1.1559,-1.1572,-1.16,-1.1591,-1.1602,-1.1622,-1.1637,-1.1663,-1.1634,-1.1671,-1.1672,-1.1665,-1.1715,-1.1721,-1.1763,-1.1699,-1.17,-1.1701,0,-1.1393,-1.1417,-1.1468,-1.1493,-1.1505,-1.1529,-1.1558,-1.1581,-1.1605,-1.1612,-1.1632,-1.1635,-1.1668,-1.1651,-1.1696,-1.1676,-1.1692,-1.1701,-1.1703,-1.1708,-1.1689,-1.1722,-1.1776,-1.1783,-1.171,-1.171,-1.1709,0,-1.1422,-1.1468,-1.1505,-1.1517,-1.1547,-1.1564,-1.1578,-1.16,-1.1618,-1.1643,-1.1654,-1.1683,-1.1698,-1.172,-1.1731,-1.1718,-1.1776,-1.176,-1.1783,-1.1783,-1.1796,-1.1796,-1.1855,-1.1805,-1.1805,-1.1804,-1.1804,0,-1.147,-1.1502,-1.1518,-1.1541,-1.1576,-1.1585,-1.162,-1.1633,-1.1653,-1.1678,-1.168,-1.1704,-1.1716,-1.1742,-1.1751,-1.1787,-1.1794,-1.1801,-1.1803,-1.1802,-1.1801,-1.1813,-1.181,-1.1806,-1.1806,-1.1805,-1.1805,0,-1.151,-1.1523,-1.1563,-1.1587,-1.1594,-1.1619,-1.1641,-1.1663,-1.1674,-1.1706,-1.1714,-1.1731,-1.1761,-1.1774,-1.1811,-1.1817,-1.1859,-1.1859,-1.1851,-1.1852,-1.1875,-1.1873,-1.1944,-1.1954,-1.1897,-1.1897,-1.1898,0,-1.1541,-1.1565,-1.1592,-1.1609,-1.1623,-1.165,-1.1668,-1.1677,-1.1696,-1.1724,-1.1743,-1.1773,-1.1798,-1.1846,-1.1862,-1.1891,-1.1892,-1.1915,-1.1896,-1.1894,-1.1893,-1.1892,-1.1894,-1.1919,-1.1919,-1.192,-1.192,0,-1.1594,-1.1598,-1.1624,-1.1651,-1.1672,-1.1695,-1.1716,-1.173,-1.1743,-1.1764,-1.1794,-1.1813,-1.1851,-1.1881,-1.191,-1.1924,-1.1925,-1.1925,-1.1932,-1.1932,-1.1927,-1.193,-1.1861,-1.1924,-1.1924,-1.1923,-1.1923,-1.1923,-1.1631,-1.1652,-1.1675,-1.1703,-1.172,-1.174,-1.1762,-1.1775,-1.1801,-1.1832,-1.1836,-1.1869,-1.1891,-1.1931,-1.1946,-1.1972,-1.1966,-1.1976,-1.1979,-1.1981,-1.1983,-1.1921,-1.1977,-1.1977,-1.1977,-1.1977,-1.1977,0,-1.1684,-1.1699,-1.1724,-1.1754,-1.1776,-1.1774,-1.1797,-1.1816,-1.1845,-1.1866,-1.189,-1.1925,-1.1954,-1.1972,-1.2001,-1.2018,-1.2019,-1.2026,-1.2025,-1.2029,-1.1986,-1.1978,-1.2025,-1.2025,-1.2025,-1.2025,-1.2025,-1.2025,-1.1715,-1.1751,-1.1759,-1.1803,-1.1817,-1.1849,-1.1863,-1.1882,-1.1898,-1.1937,-1.1961,-1.1972,-1.1992,-1.2023,-1.2049,-1.2054,-1.2065,-1.2072,-1.2076,-1.2037,-1.2032,-1.2027,-1.2019,-1.2074,-1.2074,-1.2116,-1.2117,-1.2117]},{"header":{"parameterUnit":"m.s-1","parameterCategory":1,"la1":30.2991,"la2":30.254,"lo1":-89.0895,"lo2":-89.0444,"dy":0.0017,"dx":0.0017,"nx":28,"ny":28,"refTime":"2024-03-27T03:00:00:Z","depth":0,"parameterNumber":3,"parameterNumberName":"V-component_of_WINDS"},"data":[0,0,0,0,0,0,0,0,0,0,0,0,0,0,0,0,0,0,0,0,0,0,0,0,0,0,0,0,0,0,0,0,0,0,0,0,0,0,0,0,0,0,0,0,0,0,0,0,0,0,0,0,0,0,0,0,0,0,-6.0819,-6.082,0,-6.0862,-6.0862,-6.0863,-6.0804,-6.0802,-6.08,-6.0798,-6.0837,-6.084,-6.0843,0,0,0,0,0,0,0,0,0,0,0,0,0,-6.0685,-6.0687,-6.0819,-6.082,-6.082,-6.0862,-6.0862,-6.0863,-6.0805,-6.0802,-6.08,-6.0798,-6.0836,-6.0839,-6.0843,0,0,0,0,0,0,0,0,0,0,0,0,0,-6.0736,-6.0688,-6.0819,-6.0797,-6.0795,-6.0861,-6.0862,-6.0863,-6.0805,-6.0802,-6.0799,-6.0796,-6.0835,-6.0839,-6.0843,-6.0932,0,0,-6.0857,-6.0859,0,0,0,0,0,0,0,0,-6.0734,-6.0741,-6.0799,-6.0798,-6.0797,-6.0825,-6.0829,-6.0886,-6.0806,-6.0801,-6.0798,-6.0795,-6.0835,-6.0839,-6.0854,-6.0934,-6.0936,-6.0857,-6.086,-6.0862,-6.0863,0,0,0,0,0,0,0,-6.073,-6.0739,-6.0836,-6.08,-6.0799,-6.0783,-6.0787,-6.0839,-6.0835,-6.0801,-6.0797,-6.0803,-6.0834,-6.085,-6.0854,-6.0936,-6.0857,-6.0861,-6.0864,-6.0866,-6.1093,-6.1096,0,0,0,0,0,0,-6.073,-6.0737,-6.0834,-6.0837,-6.0757,-6.0788,-6.0792,-6.0819,-6.0834,-6.0834,-6.0806,-6.0801,-6.0844,-6.0849,-6.0855,-6.0962,-6.0862,-6.0866,-6.0868,-6.109,-6.1094,-6.1097,0,0,0,0,0,0,-6.0727,-6.0739,-6.0833,-6.0786,-6.0797,-6.0794,-6.0824,-6.0821,-6.0837,-6.0838,-6.0836,-6.0824,-6.0841,-6.0849,-6.0914,-6.0962,-6.0868,-6.0872,-6.1086,-6.1091,-6.1096,-6.1174,0,0,0,0,0,0,-6.0724,-6.0738,-6.0773,-6.0787,-6.0799,-6.0893,-6.0827,-6.0824,-6.0846,-6.0839,-6.0854,-6.0853,-6.084,-6.0908,-6.0919,-6.0966,-6.0875,-6.1081,-6.1088,-6.1094,-6.1167,-6.1181,-6.1193,0,0,0,0,0,-6.0719,-6.0792,-6.0775,-6.0787,-6.0843,-6.0895,-6.0902,-6.0887,-6.085,-6.0884,-6.0884,-6.0853,-6.0955,-6.0915,-6.0927,-6.0976,-6.1078,-6.1086,-6.1094,-6.1161,-6.1179,-6.1193,0,0,0,0,0,0,-6.0781,-6.0794,-6.0775,-6.0855,-6.0875,-6.0885,-6.0928,-6.0905,-6.0934,-6.0927,-6.0904,-6.0908,-6.0978,-6.0983,-6.0939,-6.1064,-6.101,-6.1021,-6.1058,-6.1074,-6.1087,-6.1084,-6.0879,0,0,0,0,0,-6.0805,-6.0848,-6.0856,-6.0926,-6.0937,-6.0931,-6.0953,-6.094,-6.0959,-6.0966,-6.0971,-6.099,-6.1026,-6.105,-6.1084,-6.1168,-6.117,-6.1208,-6.1221,-6.1231,-6.1241,-6.1286,-6.1303,-6.1123,-6.1123,-6.1122,0,0,-6.0853,-6.0865,-6.0893,-6.0939,-6.0952,-6.0997,-6.0938,-6.0987,-6.1019,-6.0973,-6.1036,-6.104,-6.1059,-6.1135,-6.1168,-6.1141,-6.1291,-6.1241,-6.125,-6.1253,-6.1296,-6.1313,-6.1328,-6.1128,-6.1127,-6.1126,0,0,-6.0964,-6.0978,-6.1038,-6.1054,-6.1076,-6.1072,-6.1087,-6.1102,-6.1104,-6.1167,-6.1133,-6.117,-6.1233,-6.1249,-6.1265,-6.1383,-6.1355,-6.1394,-6.1463,-6.1507,-6.1522,-6.1534,-6.1577,-6.1593,-6.1404,-6.1404,-6.1404,0,-6.1021,-6.1088,-6.1072,-6.1124,-6.1145,-6.1107,-6.1168,-6.1183,-6.1215,-6.1229,-6.1199,-6.1279,-6.1289,-6.1368,-6.1397,-6.1411,-6.1427,-6.1393,-6.1521,-6.1534,-6.1545,-6.1586,-6.1602,-6.1409,-6.1408,-6.1407,-6.1407,0,-6.1157,-6.1204,-6.125,-6.1284,-6.131,-6.1366,-6.1357,-6.1385,-6.137,-6.1369,-6.1434,-6.1445,-6.148,-6.1498,-6.1482,-6.1575,-6.1558,-6.1525,-6.1471,-6.1567,-6.1605,-6.1621,-6.1415,-6.1414,-6.1412,-6.1411,0,0,-6.1307,-6.1334,-6.1351,-6.1367,-6.1389,-6.1425,-6.1479,-6.1516,-6.154,-6.1563,-6.1608,-6.1663,-6.1634,-6.1652,-6.1638,-6.1677,-6.1772,-6.1639,-6.1639,-6.1664,-6.1875,-6.1901,-6.1919,-6.1753,-6.1756,-6.1758,-6.1874,0,-6.1419,-6.1516,-6.1503,-6.1595,-6.1638,-6.1604,-6.1651,-6.167,-6.167,-6.1706,-6.1705,-6.1746,-6.1703,-6.1714,-6.1751,-6.1752,-6.1814,-6.1744,-6.1794,-6.1796,-6.1791,-6.1939,-6.1965,-6.2074,-6.1889,-6.1891,-6.1893,0,-6.1562,-6.1593,-6.169,-6.1708,-6.1726,-6.1769,-6.1802,-6.1837,-6.1857,-6.1855,-6.1877,-6.1856,-6.1909,-6.1854,-6.1928,-6.188,-6.19,-6.1904,-6.1907,-6.1912,-6.1851,-6.1948,-6.2108,-6.2125,-6.1916,-6.1914,-6.1912,0,-6.1664,-6.1729,-6.1797,-6.1811,-6.1833,-6.1864,-6.1874,-6.1892,-6.1915,-6.1943,-6.1958,-6.1992,-6.2011,-6.2037,-6.2025,-6.1986,-6.2101,-6.2045,-6.21,-6.2101,-6.2126,-6.2125,-6.2293,-6.2138,-6.2138,-6.2138,-6.2138,0,-6.179,-6.1851,-6.1843,-6.1884,-6.1951,-6.1936,-6.2002,-6.2008,-6.2024,-6.2065,-6.2036,-6.2074,-6.2057,-6.2094,-6.2085,-6.2148,-6.2156,-6.2155,-6.2152,-6.2158,-6.2158,-6.2171,-6.2163,-6.2142,-6.2141,-6.214,-6.214,0,-6.1915,-6.1912,-6.1983,-6.1999,-6.2004,-6.2053,-6.2066,-6.2104,-6.2103,-6.2155,-6.2166,-6.2164,-6.2207,-6.2198,-6.2244,-6.2238,-6.2317,-6.2304,-6.2311,-6.2308,-6.2364,-6.2359,-6.2546,-6.257,-6.24,-6.2402,-6.2403,0,-6.1996,-6.2042,-6.2064,-6.2091,-6.2104,-6.2147,-6.2171,-6.2158,-6.2184,-6.2212,-6.2247,-6.2287,-6.2319,-6.2388,-6.239,-6.2425,-6.2413,-6.2476,-6.2418,-6.2423,-6.2415,-6.2413,-6.2417,-6.2488,-6.249,-6.2491,-6.2493,0,-6.2141,-6.2137,-6.2175,-6.2213,-6.2244,-6.2272,-6.2297,-6.232,-6.2309,-6.234,-6.2384,-6.2409,-6.2457,-6.2498,-6.2531,-6.2539,-6.2515,-6.2511,-6.2526,-6.2533,-6.2535,-6.2535,-6.2343,-6.2507,-6.2505,-6.2504,-6.2504,-6.2503,-6.2246,-6.2287,-6.2309,-6.2352,-6.237,-6.2395,-6.2433,-6.2437,-6.2475,-6.2515,-6.2504,-6.2554,-6.2574,-6.2616,-6.2629,-6.2667,-6.2643,-6.2664,-6.267,-6.2676,-6.2683,-6.2529,-6.2673,-6.2672,-6.2672,-6.2672,-6.2671,0,-6.239,-6.2404,-6.2444,-6.2481,-6.2515,-6.2491,-6.2518,-6.2547,-6.2593,-6.2614,-6.2647,-6.2698,-6.2737,-6.2743,-6.278,-6.281,-6.2799,-6.282,-6.2818,-6.282,-6.2702,-6.2686,-6.2828,-6.2828,-6.2828,-6.2828,-6.2828,-6.2828,-6.2469,-6.2537,-6.2536,-6.2612,-6.2624,-6.2676,-6.2693,-6.2716,-6.2733,-6.2792,-6.2826,-6.283,-6.2845,-6.2883,-6.2918,-6.2918,-6.2933,-6.2959,-6.2955,-6.2844,-6.2828,-6.2813,-6.2798,-6.2962,-6.2962,-6.307,-6.3071,-6.3072]}]]